owner,sensor,date,latitude,longitude,vertical_datum,sea_water_practical_salinity,qcFlag 
SCCF RECON,ioos:station:SCCF:51:1,2011-01-01T00:00:00Z,26.5545,-82.1715,2.096,33.69,1111122 
SCCF RECON,ioos:station:SCCF:51:1,2011-01-01T01:00:00Z,26.5545,-82.1715,2.16,33.7,1111122 
SCCF RECON,ioos:station:SCCF:51:1,2011-01-01T02:00:00Z,26.5545,-82.1715,2.19,33.71,1111122 
SCCF RECON,ioos:station:SCCF:51:1,2011-01-01T03:00:00Z,26.5545,-82.1715,2.17,33.71,1111122 
SCCF RECON,ioos:station:SCCF:51:1,2011-01-01T04:00:00Z,26.5545,-82.1715,2.1,33.67,1111122 
SCCF RECON,ioos:station:SCCF:51:1,2011-01-01T05:00:00Z,26.5545,-82.1715,2.01,33.63,1111122 
SCCF RECON,ioos:station:SCCF:51:1,2011-01-01T06:00:00Z,26.5545,-82.1715,1.89,33.54,1111122 
SCCF RECON,ioos:station:SCCF:51:1,2011-01-01T07:00:00Z,26.5545,-82.1715,1.759,33.45,1111122 
SCCF RECON,ioos:station:SCCF:51:1,2011-01-01T08:00:00Z,26.5545,-82.1715,1.63,33.37,1111122 
SCCF RECON,ioos:station:SCCF:51:1,2011-01-01T09:00:00Z,26.5545,-82.1715,1.51,33.31,1111122 
SCCF RECON,ioos:station:SCCF:51:1,2011-01-01T10:00:00Z,26.5545,-82.1715,1.41,33.26,1111122 
SCCF RECON,ioos:station:SCCF:51:1,2011-01-01T11:00:00Z,26.5545,-82.1715,1.359,33.27,1111122 
SCCF RECON,ioos:station:SCCF:51:1,2011-01-01T12:00:00Z,26.5545,-82.1715,1.429,33.3,1111122 
SCCF RECON,ioos:station:SCCF:51:1,2011-01-01T13:00:00Z,26.5545,-82.1715,1.54,33.34,1111122 
SCCF RECON,ioos:station:SCCF:51:1,2011-01-01T14:00:00Z,26.5545,-82.1715,1.671,33.55,1111122 
SCCF RECON,ioos:station:SCCF:51:1,2011-01-01T15:00:00Z,26.5545,-82.1715,1.783,33.36,1111122 
SCCF RECON,ioos:station:SCCF:51:1,2011-01-01T16:00:00Z,26.5545,-82.1715,1.862,33.56,1111122 
SCCF RECON,ioos:station:SCCF:51:1,2011-01-01T17:00:00Z,26.5545,-82.1715,1.917,33.55,1111122 
SCCF RECON,ioos:station:SCCF:51:1,2011-01-01T18:00:00Z,26.5545,-82.1715,1.923,33.53,1111122 
SCCF RECON,ioos:station:SCCF:51:1,2011-01-01T19:00:00Z,26.5545,-82.1715,1.89,33.4,1111122 
SCCF RECON,ioos:station:SCCF:51:1,2011-01-01T20:00:00Z,26.5545,-82.1715,1.837,33.41,1111122 
SCCF RECON,ioos:station:SCCF:51:1,2011-01-01T21:00:00Z,26.5545,-82.1715,1.82,33.35,1111122 
SCCF RECON,ioos:station:SCCF:51:1,2011-01-01T22:00:00Z,26.5545,-82.1715,1.855,33.48,1111122 
SCCF RECON,ioos:station:SCCF:51:1,2011-01-01T23:00:00Z,26.5545,-82.1715,1.936,33.64,1111122 
SCCF RECON,ioos:station:SCCF:51:1,2011-01-02T00:00:00Z,26.5545,-82.1715,2.032,33.65,1111122 
SCCF RECON,ioos:station:SCCF:51:1,2011-01-02T01:00:00Z,26.5545,-82.1715,2.111,33.68,1111122 
SCCF RECON,ioos:station:SCCF:51:1,2011-01-02T02:00:00Z,26.5545,-82.1715,2.18,33.7,1111122 
SCCF RECON,ioos:station:SCCF:51:1,2011-01-02T03:00:00Z,26.5545,-82.1715,2.153,33.7,1111122 
SCCF RECON,ioos:station:SCCF:51:1,2011-01-02T04:00:00Z,26.5545,-82.1715,2.116,33.69,1111122 
SCCF RECON,ioos:station:SCCF:51:1,2011-01-02T05:00:00Z,26.5545,-82.1715,2.05,33.66,1111122 
SCCF RECON,ioos:station:SCCF:51:1,2011-01-02T06:00:00Z,26.5545,-82.1715,1.94,33.59,1111122 
SCCF RECON,ioos:station:SCCF:51:1,2011-01-02T07:00:00Z,26.5545,-82.1715,1.82,33.49,1111122 
SCCF RECON,ioos:station:SCCF:51:1,2011-01-02T08:00:00Z,26.5545,-82.1715,1.69,33.37,1111122 
SCCF RECON,ioos:station:SCCF:51:1,2011-01-02T09:00:00Z,26.5545,-82.1715,1.562,33.27,1111122 
SCCF RECON,ioos:station:SCCF:51:1,2011-01-02T10:00:00Z,26.5545,-82.1715,1.45,33.24,1111122 
SCCF RECON,ioos:station:SCCF:51:1,2011-01-02T11:00:00Z,26.5545,-82.1715,1.34,33.27,1111122 
SCCF RECON,ioos:station:SCCF:51:1,2011-01-02T12:00:00Z,26.5545,-82.1715,1.29,33.25,1111122 
SCCF RECON,ioos:station:SCCF:51:1,2011-01-02T13:00:00Z,26.5545,-82.1715,1.356,33.26,1111122 
SCCF RECON,ioos:station:SCCF:51:1,2011-01-02T14:00:00Z,26.5545,-82.1715,1.484,33.25,1111122 
SCCF RECON,ioos:station:SCCF:51:1,2011-01-02T15:00:00Z,26.5545,-82.1715,1.629,33.47,1111122 
SCCF RECON,ioos:station:SCCF:51:1,2011-01-02T16:00:00Z,26.5545,-82.1715,1.75,33.55,1111122 
SCCF RECON,ioos:station:SCCF:51:1,2011-01-02T17:00:00Z,26.5545,-82.1715,1.831,33.54,1111122 
SCCF RECON,ioos:station:SCCF:51:1,2011-01-02T18:00:00Z,26.5545,-82.1715,1.86,33.49,1111122 
SCCF RECON,ioos:station:SCCF:51:1,2011-01-02T19:00:00Z,26.5545,-82.1715,1.874,33.49,1111122 
SCCF RECON,ioos:station:SCCF:51:1,2011-01-02T20:00:00Z,26.5545,-82.1715,1.828,33.4,1111122 
SCCF RECON,ioos:station:SCCF:51:1,2011-01-02T21:00:00Z,26.5545,-82.1715,1.774,33.36,1111122 
SCCF RECON,ioos:station:SCCF:51:1,2011-01-02T22:00:00Z,26.5545,-82.1715,1.776,33.37,1111122 
SCCF RECON,ioos:station:SCCF:51:1,2011-01-02T23:00:00Z,26.5545,-82.1715,1.822,33.47,1111122 
SCCF RECON,ioos:station:SCCF:51:1,2011-01-03T00:00:00Z,26.5545,-82.1715,1.9,33.56,1111122 
SCCF RECON,ioos:station:SCCF:51:1,2011-01-03T01:00:00Z,26.5545,-82.1715,1.981,33.52,1111122 
SCCF RECON,ioos:station:SCCF:51:1,2011-01-03T02:00:00Z,26.5545,-82.1715,2.053,33.64,1111122 
SCCF RECON,ioos:station:SCCF:51:1,2011-01-03T03:00:00Z,26.5545,-82.1715,2.107,33.64,1111122 
SCCF RECON,ioos:station:SCCF:51:1,2011-01-03T04:00:00Z,26.5545,-82.1715,2.105,33.62,1111122 
SCCF RECON,ioos:station:SCCF:51:1,2011-01-03T05:00:00Z,26.5545,-82.1715,2.063,33.63,1111122 
SCCF RECON,ioos:station:SCCF:51:1,2011-01-03T06:00:00Z,26.5545,-82.1715,1.98,33.56,1111122 
SCCF RECON,ioos:station:SCCF:51:1,2011-01-03T07:00:00Z,26.5545,-82.1715,1.87,33.5,1111122 
SCCF RECON,ioos:station:SCCF:51:1,2011-01-03T08:00:00Z,26.5545,-82.1715,1.75,33.4,1111122 
SCCF RECON,ioos:station:SCCF:51:1,2011-01-03T09:00:00Z,26.5545,-82.1715,1.61,33.33,1111122 
SCCF RECON,ioos:station:SCCF:51:1,2011-01-03T10:00:00Z,26.5545,-82.1715,1.476,33.29,1111122 
SCCF RECON,ioos:station:SCCF:51:1,2011-01-03T11:00:00Z,26.5545,-82.1715,1.36,33.29,1111122 
SCCF RECON,ioos:station:SCCF:51:1,2011-01-03T12:00:00Z,26.5545,-82.1715,1.27,33.31,1111122 
SCCF RECON,ioos:station:SCCF:51:1,2011-01-03T13:00:00Z,26.5545,-82.1715,1.253,33.3,1111122 
SCCF RECON,ioos:station:SCCF:51:1,2011-01-03T14:00:00Z,26.5545,-82.1715,1.346,33.31,1111122 
SCCF RECON,ioos:station:SCCF:51:1,2011-01-03T15:00:00Z,26.5545,-82.1715,1.484,33.31,1111122 
SCCF RECON,ioos:station:SCCF:51:1,2011-01-03T16:00:00Z,26.5545,-82.1715,1.62,33.49,1111122 
SCCF RECON,ioos:station:SCCF:51:1,2011-01-03T17:00:00Z,26.5545,-82.1715,1.719,33.56,1111122 
SCCF RECON,ioos:station:SCCF:51:1,2011-01-03T18:00:00Z,26.5545,-82.1715,1.786,33.55,1111122 
SCCF RECON,ioos:station:SCCF:51:1,2011-01-03T19:00:00Z,26.5545,-82.1715,1.809,33.52,1111122 
SCCF RECON,ioos:station:SCCF:51:1,2011-01-03T20:00:00Z,26.5545,-82.1715,1.786,33.35,1111122 
SCCF RECON,ioos:station:SCCF:51:1,2011-01-03T21:00:00Z,26.5545,-82.1715,1.745,33.35,1111122 
SCCF RECON,ioos:station:SCCF:51:1,2011-01-03T22:00:00Z,26.5545,-82.1715,1.737,33.3,1111122 
SCCF RECON,ioos:station:SCCF:51:1,2011-01-03T23:00:00Z,26.5545,-82.1715,1.76,33.42,1111122 
SCCF RECON,ioos:station:SCCF:51:1,2011-01-04T00:00:00Z,26.5545,-82.1715,1.814,33.43,1111122 
SCCF RECON,ioos:station:SCCF:51:1,2011-01-04T01:00:00Z,26.5545,-82.1715,1.89,33.55,1111122 
SCCF RECON,ioos:station:SCCF:51:1,2011-01-04T02:00:00Z,26.5545,-82.1715,1.973,33.59,1111122 
SCCF RECON,ioos:station:SCCF:51:1,2011-01-04T03:00:00Z,26.5545,-82.1715,2.069,33.64,1111122 
SCCF RECON,ioos:station:SCCF:51:1,2011-01-04T04:00:00Z,26.5545,-82.1715,2.13,33.66,1111122 
SCCF RECON,ioos:station:SCCF:51:1,2011-01-04T05:00:00Z,26.5545,-82.1715,2.13,33.65,1111122 
SCCF RECON,ioos:station:SCCF:51:1,2011-01-04T06:00:00Z,26.5545,-82.1715,2.073,33.65,1111122 
SCCF RECON,ioos:station:SCCF:51:1,2011-01-04T07:00:00Z,26.5545,-82.1715,1.98,33.62,1111122 
SCCF RECON,ioos:station:SCCF:51:1,2011-01-04T08:00:00Z,26.5545,-82.1715,1.86,33.45,1111122 
SCCF RECON,ioos:station:SCCF:51:1,2011-01-04T09:00:00Z,26.5545,-82.1715,1.72,33.36,1111122 
SCCF RECON,ioos:station:SCCF:51:1,2011-01-04T10:00:00Z,26.5545,-82.1715,1.583,33.35,1111122 
SCCF RECON,ioos:station:SCCF:51:1,2011-01-04T11:00:00Z,26.5545,-82.1715,1.469,33.34,1111122 
SCCF RECON,ioos:station:SCCF:51:1,2011-01-04T12:00:00Z,26.5545,-82.1715,1.366,33.33,1111122 
SCCF RECON,ioos:station:SCCF:51:1,2011-01-04T13:00:00Z,26.5545,-82.1715,1.306,33.32,1111122 
SCCF RECON,ioos:station:SCCF:51:1,2011-01-04T14:00:00Z,26.5545,-82.1715,1.359,33.34,1111122 
SCCF RECON,ioos:station:SCCF:51:1,2011-01-04T15:00:00Z,26.5545,-82.1715,1.47,33.37,1111122 
SCCF RECON,ioos:station:SCCF:51:1,2011-01-04T16:00:00Z,26.5545,-82.1715,1.608,33.41,1111122 
SCCF RECON,ioos:station:SCCF:51:1,2011-01-04T17:00:00Z,26.5545,-82.1715,1.724,33.58,1111122 
SCCF RECON,ioos:station:SCCF:51:1,2011-01-04T18:00:00Z,26.5545,-82.1715,1.787,33.59,1111122 
SCCF RECON,ioos:station:SCCF:51:1,2011-01-04T19:00:00Z,26.5545,-82.1715,1.819,33.54,1111122 
SCCF RECON,ioos:station:SCCF:51:1,2011-01-04T20:00:00Z,26.5545,-82.1715,1.8,33.48,1111122 
SCCF RECON,ioos:station:SCCF:51:1,2011-01-04T21:00:00Z,26.5545,-82.1715,1.755,33.43,1111122 
SCCF RECON,ioos:station:SCCF:51:1,2011-01-04T22:00:00Z,26.5545,-82.1715,1.703,33.36,1111122 
SCCF RECON,ioos:station:SCCF:51:1,2011-01-04T23:00:00Z,26.5545,-82.1715,1.695,33.34,1111122 
SCCF RECON,ioos:station:SCCF:51:1,2011-01-05T00:00:00Z,26.5545,-82.1715,1.718,33.3,1111122 
SCCF RECON,ioos:station:SCCF:51:1,2011-01-05T01:00:00Z,26.5545,-82.1715,1.77,33.44,1111122 
SCCF RECON,ioos:station:SCCF:51:1,2011-01-05T02:00:00Z,26.5545,-82.1715,1.846,33.52,1111122 
SCCF RECON,ioos:station:SCCF:51:1,2011-01-05T03:00:00Z,26.5545,-82.1715,1.95,33.65,1111122 
SCCF RECON,ioos:station:SCCF:51:1,2011-01-05T04:00:00Z,26.5545,-82.1715,2.044,33.66,1111122 
SCCF RECON,ioos:station:SCCF:51:1,2011-01-05T05:00:00Z,26.5545,-82.1715,2.108,33.67,1111122 
SCCF RECON,ioos:station:SCCF:51:1,2011-01-05T06:00:00Z,26.5545,-82.1715,2.08,33.67,1111122 
SCCF RECON,ioos:station:SCCF:51:1,2011-01-05T07:00:00Z,26.5545,-82.1715,2.0,33.66,1111122 
SCCF RECON,ioos:station:SCCF:51:1,2011-01-05T08:00:00Z,26.5545,-82.1715,1.88,33.56,1111122 
SCCF RECON,ioos:station:SCCF:51:1,2011-01-05T09:00:00Z,26.5545,-82.1715,1.75,33.44,1111122 
SCCF RECON,ioos:station:SCCF:51:1,2011-01-05T10:00:00Z,26.5545,-82.1715,1.615,33.36,1111122 
SCCF RECON,ioos:station:SCCF:51:1,2011-01-05T11:00:00Z,26.5545,-82.1715,1.49,33.31,1111122 
SCCF RECON,ioos:station:SCCF:51:1,2011-01-05T12:00:00Z,26.5545,-82.1715,1.383,33.32,1111122 
SCCF RECON,ioos:station:SCCF:51:1,2011-01-05T13:00:00Z,26.5545,-82.1715,1.293,33.32,1111122 
SCCF RECON,ioos:station:SCCF:51:1,2011-01-05T14:00:00Z,26.5545,-82.1715,1.281,33.33,1111122 
SCCF RECON,ioos:station:SCCF:51:1,2011-01-05T15:00:00Z,26.5545,-82.1715,1.377,33.35,1111122 
SCCF RECON,ioos:station:SCCF:51:1,2011-01-05T16:00:00Z,26.5545,-82.1715,1.508,33.33,1111122 
SCCF RECON,ioos:station:SCCF:51:1,2011-01-05T17:00:00Z,26.5545,-82.1715,1.644,33.58,1111122 
SCCF RECON,ioos:station:SCCF:51:1,2011-01-05T18:00:00Z,26.5545,-82.1715,1.747,33.45,1111122 
SCCF RECON,ioos:station:SCCF:51:1,2011-01-05T19:00:00Z,26.5545,-82.1715,1.798,33.52,1111122 
SCCF RECON,ioos:station:SCCF:51:1,2011-01-05T20:00:00Z,26.5545,-82.1715,1.811,33.49,1111122 
SCCF RECON,ioos:station:SCCF:51:1,2011-01-05T21:00:00Z,26.5545,-82.1715,1.778,33.37,1111122 
SCCF RECON,ioos:station:SCCF:51:1,2011-01-05T22:00:00Z,26.5545,-82.1715,1.723,33.32,1111122 
SCCF RECON,ioos:station:SCCF:51:1,2011-01-05T23:00:00Z,26.5545,-82.1715,1.691,33.26,1111122 
SCCF RECON,ioos:station:SCCF:51:1,2011-01-06T00:00:00Z,26.5545,-82.1715,1.696,33.24,1111122 
SCCF RECON,ioos:station:SCCF:51:1,2011-01-06T01:00:00Z,26.5545,-82.1715,1.747,33.28,1111122 
SCCF RECON,ioos:station:SCCF:51:1,2011-01-06T02:00:00Z,26.5545,-82.1715,1.808,33.64,1111122 
SCCF RECON,ioos:station:SCCF:51:1,2011-01-06T03:00:00Z,26.5545,-82.1715,1.902,33.69,1111122 
SCCF RECON,ioos:station:SCCF:51:1,2011-01-06T04:00:00Z,26.5545,-82.1715,2.014,33.69,1111122 
SCCF RECON,ioos:station:SCCF:51:1,2011-01-06T05:00:00Z,26.5545,-82.1715,2.092,33.71,1111122 
SCCF RECON,ioos:station:SCCF:51:1,2011-01-06T06:00:00Z,26.5545,-82.1715,2.131,33.68,1111122 
SCCF RECON,ioos:station:SCCF:51:1,2011-01-06T07:00:00Z,26.5545,-82.1715,2.104,33.67,1111122 
SCCF RECON,ioos:station:SCCF:51:1,2011-01-06T08:00:00Z,26.5545,-82.1715,2.017,33.67,1111122 
SCCF RECON,ioos:station:SCCF:51:1,2011-01-06T09:00:00Z,26.5545,-82.1715,1.906,33.56,1111122 
SCCF RECON,ioos:station:SCCF:51:1,2011-01-06T10:00:00Z,26.5545,-82.1715,1.765,33.33,1111122 
SCCF RECON,ioos:station:SCCF:51:1,2011-01-06T11:00:00Z,26.5545,-82.1715,1.631,33.19,1111122 
SCCF RECON,ioos:station:SCCF:51:1,2011-01-06T12:00:00Z,26.5545,-82.1715,1.511,33.27,1111122 
SCCF RECON,ioos:station:SCCF:51:1,2011-01-06T13:00:00Z,26.5545,-82.1715,1.422,33.25,1111122 
SCCF RECON,ioos:station:SCCF:51:1,2011-01-06T14:00:00Z,26.5545,-82.1715,1.367,33.24,1111122 
SCCF RECON,ioos:station:SCCF:51:1,2011-01-06T15:00:00Z,26.5545,-82.1715,1.417,33.28,1111122 
SCCF RECON,ioos:station:SCCF:51:1,2011-01-06T16:00:00Z,26.5545,-82.1715,1.516,33.14,1111122 
SCCF RECON,ioos:station:SCCF:51:1,2011-01-06T17:00:00Z,26.5545,-82.1715,1.654,33.23,1111122 
SCCF RECON,ioos:station:SCCF:51:1,2011-01-06T18:00:00Z,26.5545,-82.1715,1.753,33.18,1111122 
SCCF RECON,ioos:station:SCCF:51:1,2011-01-06T19:00:00Z,26.5545,-82.1715,1.843,33.45,1111122 
SCCF RECON,ioos:station:SCCF:51:1,2011-01-06T20:00:00Z,26.5545,-82.1715,1.853,33.5,1111122 
SCCF RECON,ioos:station:SCCF:51:1,2011-01-06T21:00:00Z,26.5545,-82.1715,1.813,33.26,1111122 
SCCF RECON,ioos:station:SCCF:51:1,2011-01-06T22:00:00Z,26.5545,-82.1715,1.74,33.16,1111122 
SCCF RECON,ioos:station:SCCF:51:1,2011-01-06T23:00:00Z,26.5545,-82.1715,1.666,33.11,1111122 
SCCF RECON,ioos:station:SCCF:51:1,2011-01-07T00:00:00Z,26.5545,-82.1715,1.615,33.14,1111122 
SCCF RECON,ioos:station:SCCF:51:1,2011-01-07T01:00:00Z,26.5545,-82.1715,1.617,33.21,1111122 
SCCF RECON,ioos:station:SCCF:51:1,2011-01-07T02:00:00Z,26.5545,-82.1715,1.644,33.16,1111122 
SCCF RECON,ioos:station:SCCF:51:1,2011-01-07T03:00:00Z,26.5545,-82.1715,1.688,33.2,1111122 
SCCF RECON,ioos:station:SCCF:51:1,2011-01-07T04:00:00Z,26.5545,-82.1715,1.779,33.36,1111122 
SCCF RECON,ioos:station:SCCF:51:1,2011-01-07T05:00:00Z,26.5545,-82.1715,1.863,33.47,1111122 
SCCF RECON,ioos:station:SCCF:51:1,2011-01-07T06:00:00Z,26.5545,-82.1715,1.944,33.59,1111122 
SCCF RECON,ioos:station:SCCF:51:1,2011-01-07T07:00:00Z,26.5545,-82.1715,1.971,33.59,1111122 
SCCF RECON,ioos:station:SCCF:51:1,2011-01-07T08:00:00Z,26.5545,-82.1715,1.912,33.45,1111122 
SCCF RECON,ioos:station:SCCF:51:1,2011-01-07T09:00:00Z,26.5545,-82.1715,1.804,33.45,1111122 
SCCF RECON,ioos:station:SCCF:51:1,2011-01-07T10:00:00Z,26.5545,-82.1715,1.685,33.36,1111122 
SCCF RECON,ioos:station:SCCF:51:1,2011-01-07T11:00:00Z,26.5545,-82.1715,1.566,33.51,1111122 
SCCF RECON,ioos:station:SCCF:51:1,2011-01-07T12:00:00Z,26.5545,-82.1715,1.459,33.45,1111122 
SCCF RECON,ioos:station:SCCF:51:1,2011-01-07T13:00:00Z,26.5545,-82.1715,1.371,33.4,1111122 
SCCF RECON,ioos:station:SCCF:51:1,2011-01-07T14:00:00Z,26.5545,-82.1715,1.312,33.37,1111122 
SCCF RECON,ioos:station:SCCF:51:1,2011-01-07T15:00:00Z,26.5545,-82.1715,1.317,33.39,1111122 
SCCF RECON,ioos:station:SCCF:51:1,2011-01-07T16:00:00Z,26.5545,-82.1715,1.38,33.46,1111122 
SCCF RECON,ioos:station:SCCF:51:1,2011-01-07T17:00:00Z,26.5545,-82.1715,1.49,33.51,1111122 
SCCF RECON,ioos:station:SCCF:51:1,2011-01-07T18:00:00Z,26.5545,-82.1715,1.607,33.55,1111122 
SCCF RECON,ioos:station:SCCF:51:1,2011-01-07T19:00:00Z,26.5545,-82.1715,1.699,33.52,1111122 
SCCF RECON,ioos:station:SCCF:51:1,2011-01-07T20:00:00Z,26.5545,-82.1715,1.753,33.54,1111122 
SCCF RECON,ioos:station:SCCF:51:1,2011-01-07T21:00:00Z,26.5545,-82.1715,1.786,33.52,1111122 
SCCF RECON,ioos:station:SCCF:51:1,2011-01-07T22:00:00Z,26.5545,-82.1715,1.751,33.46,1111122 
SCCF RECON,ioos:station:SCCF:51:1,2011-01-07T23:00:00Z,26.5545,-82.1715,1.699,33.41,1111122 
SCCF RECON,ioos:station:SCCF:51:1,2011-01-08T00:00:00Z,26.5545,-82.1715,1.649,33.35,1111122 
SCCF RECON,ioos:station:SCCF:51:1,2011-01-08T01:00:00Z,26.5545,-82.1715,1.646,33.34,1111122 
SCCF RECON,ioos:station:SCCF:51:1,2011-01-08T02:00:00Z,26.5545,-82.1715,1.688,33.33,1111122 
SCCF RECON,ioos:station:SCCF:51:1,2011-01-08T03:00:00Z,26.5545,-82.1715,1.744,33.47,1111122 
SCCF RECON,ioos:station:SCCF:51:1,2011-01-08T04:00:00Z,26.5545,-82.1715,1.81,33.57,1111122 
SCCF RECON,ioos:station:SCCF:51:1,2011-01-08T05:00:00Z,26.5545,-82.1715,1.886,33.58,1111122 
SCCF RECON,ioos:station:SCCF:51:1,2011-01-08T06:00:00Z,26.5545,-82.1715,1.961,33.62,1111122 
SCCF RECON,ioos:station:SCCF:51:1,2011-01-08T07:00:00Z,26.5545,-82.1715,1.99,33.64,1111122 
SCCF RECON,ioos:station:SCCF:51:1,2011-01-08T08:00:00Z,26.5545,-82.1715,1.988,33.64,1111122 
SCCF RECON,ioos:station:SCCF:51:1,2011-01-08T09:00:00Z,26.5545,-82.1715,1.941,33.62,1111122 
SCCF RECON,ioos:station:SCCF:51:1,2011-01-08T10:00:00Z,26.5545,-82.1715,1.864,33.57,1111122 
SCCF RECON,ioos:station:SCCF:51:1,2011-01-08T11:00:00Z,26.5545,-82.1715,1.758,33.45,1111122 
SCCF RECON,ioos:station:SCCF:51:1,2011-01-08T12:00:00Z,26.5545,-82.1715,1.65,33.37,1111122 
SCCF RECON,ioos:station:SCCF:51:1,2011-01-08T13:00:00Z,26.5545,-82.1715,1.56,33.34,1111122 
SCCF RECON,ioos:station:SCCF:51:1,2011-01-08T14:00:00Z,26.5545,-82.1715,1.48,33.34,1111122 
SCCF RECON,ioos:station:SCCF:51:1,2011-01-08T15:00:00Z,26.5545,-82.1715,1.446,33.35,1111122 
SCCF RECON,ioos:station:SCCF:51:1,2011-01-08T16:00:00Z,26.5545,-82.1715,1.471,33.36,1111122 
SCCF RECON,ioos:station:SCCF:51:1,2011-01-08T17:00:00Z,26.5545,-82.1715,1.545,33.45,1111122 
SCCF RECON,ioos:station:SCCF:51:1,2011-01-08T18:00:00Z,26.5545,-82.1715,1.654,33.47,1111122 
SCCF RECON,ioos:station:SCCF:51:1,2011-01-08T19:00:00Z,26.5545,-82.1715,1.751,33.57,1111122 
SCCF RECON,ioos:station:SCCF:51:1,2011-01-08T20:00:00Z,26.5545,-82.1715,1.806,33.55,1111122 
SCCF RECON,ioos:station:SCCF:51:1,2011-01-08T21:00:00Z,26.5545,-82.1715,1.807,33.51,1111122 
SCCF RECON,ioos:station:SCCF:51:1,2011-01-08T22:00:00Z,26.5545,-82.1715,1.765,33.48,1111122 
SCCF RECON,ioos:station:SCCF:51:1,2011-01-08T23:00:00Z,26.5545,-82.1715,1.709,33.45,1111122 
SCCF RECON,ioos:station:SCCF:51:1,2011-01-09T00:00:00Z,26.5545,-82.1715,1.643,33.39,1111122 
SCCF RECON,ioos:station:SCCF:51:1,2011-01-09T01:00:00Z,26.5545,-82.1715,1.59,33.36,1111122 
SCCF RECON,ioos:station:SCCF:51:1,2011-01-09T02:00:00Z,26.5545,-82.1715,1.568,33.36,1111122 
SCCF RECON,ioos:station:SCCF:51:1,2011-01-09T03:00:00Z,26.5545,-82.1715,1.58,33.37,1111122 
SCCF RECON,ioos:station:SCCF:51:1,2011-01-09T04:00:00Z,26.5545,-82.1715,1.624,33.46,1111122 
SCCF RECON,ioos:station:SCCF:51:1,2011-01-09T05:00:00Z,26.5545,-82.1715,1.69,33.51,1111122 
SCCF RECON,ioos:station:SCCF:51:1,2011-01-09T06:00:00Z,26.5545,-82.1715,1.774,33.53,1111122 
SCCF RECON,ioos:station:SCCF:51:1,2011-01-09T07:00:00Z,26.5545,-82.1715,1.848,33.6,1111122 
SCCF RECON,ioos:station:SCCF:51:1,2011-01-09T08:00:00Z,26.5545,-82.1715,1.89,33.6,1111122 
SCCF RECON,ioos:station:SCCF:51:1,2011-01-09T09:00:00Z,26.5545,-82.1715,1.885,33.61,1111122 
SCCF RECON,ioos:station:SCCF:51:1,2011-01-09T10:00:00Z,26.5545,-82.1715,1.834,33.53,1111122 
SCCF RECON,ioos:station:SCCF:51:1,2011-01-09T11:00:00Z,26.5545,-82.1715,1.745,33.51,1111122 
SCCF RECON,ioos:station:SCCF:51:1,2011-01-09T12:00:00Z,26.5545,-82.1715,1.648,33.44,1111122 
SCCF RECON,ioos:station:SCCF:51:1,2011-01-09T13:00:00Z,26.5545,-82.1715,1.556,33.4,1111122 
SCCF RECON,ioos:station:SCCF:51:1,2011-01-09T14:00:00Z,26.5545,-82.1715,1.486,33.4,1111122 
SCCF RECON,ioos:station:SCCF:51:1,2011-01-09T15:00:00Z,26.5545,-82.1715,1.422,33.41,1111122 
SCCF RECON,ioos:station:SCCF:51:1,2011-01-09T16:00:00Z,26.5545,-82.1715,1.438,33.42,1111122 
SCCF RECON,ioos:station:SCCF:51:1,2011-01-09T17:00:00Z,26.5545,-82.1715,1.507,33.42,1111122 
SCCF RECON,ioos:station:SCCF:51:1,2011-01-09T18:00:00Z,26.5545,-82.1715,1.618,33.52,1111122 
SCCF RECON,ioos:station:SCCF:51:1,2011-01-09T19:00:00Z,26.5545,-82.1715,1.745,33.54,1111122 
SCCF RECON,ioos:station:SCCF:51:1,2011-01-09T20:00:00Z,26.5545,-82.1715,1.828,33.48,1111122 
SCCF RECON,ioos:station:SCCF:51:1,2011-01-09T21:00:00Z,26.5545,-82.1715,1.863,33.5,1111122 
SCCF RECON,ioos:station:SCCF:51:1,2011-01-09T22:00:00Z,26.5545,-82.1715,1.854,33.5,1111122 
SCCF RECON,ioos:station:SCCF:51:1,2011-01-09T23:00:00Z,26.5545,-82.1715,1.809,33.46,1111122 
SCCF RECON,ioos:station:SCCF:51:1,2011-01-10T00:00:00Z,26.5545,-82.1715,1.748,33.31,1111122 
SCCF RECON,ioos:station:SCCF:51:1,2011-01-10T01:00:00Z,26.5545,-82.1715,1.69,33.35,1111122 
SCCF RECON,ioos:station:SCCF:51:1,2011-01-10T02:00:00Z,26.5545,-82.1715,1.637,33.37,1111122 
SCCF RECON,ioos:station:SCCF:51:1,2011-01-10T03:00:00Z,26.5545,-82.1715,1.614,33.36,1111122 
SCCF RECON,ioos:station:SCCF:51:1,2011-01-10T04:00:00Z,26.5545,-82.1715,1.639,33.36,1111122 
SCCF RECON,ioos:station:SCCF:51:1,2011-01-10T05:00:00Z,26.5545,-82.1715,1.675,33.37,1111122 
SCCF RECON,ioos:station:SCCF:51:1,2011-01-10T06:00:00Z,26.5545,-82.1715,1.713,33.33,1111122 
SCCF RECON,ioos:station:SCCF:51:1,2011-01-10T07:00:00Z,26.5545,-82.1715,1.783,33.27,1111122 
SCCF RECON,ioos:station:SCCF:51:1,2011-01-10T08:00:00Z,26.5545,-82.1715,1.837,33.27,1111122 
SCCF RECON,ioos:station:SCCF:51:1,2011-01-10T09:00:00Z,26.5545,-82.1715,1.865,33.27,1111122 
SCCF RECON,ioos:station:SCCF:51:1,2011-01-10T10:00:00Z,26.5545,-82.1715,1.847,33.27,1111122 
SCCF RECON,ioos:station:SCCF:51:1,2011-01-10T11:00:00Z,26.5545,-82.1715,1.811,33.2,1111122 
SCCF RECON,ioos:station:SCCF:51:1,2011-01-10T12:00:00Z,26.5545,-82.1715,1.764,33.19,1111122 
SCCF RECON,ioos:station:SCCF:51:1,2011-01-10T13:00:00Z,26.5545,-82.1715,1.708,33.26,1111122 
SCCF RECON,ioos:station:SCCF:51:1,2011-01-10T14:00:00Z,26.5545,-82.1715,1.645,33.26,1111122 
SCCF RECON,ioos:station:SCCF:51:1,2011-01-10T15:00:00Z,26.5545,-82.1715,1.59,33.33,1111122 
SCCF RECON,ioos:station:SCCF:51:1,2011-01-10T16:00:00Z,26.5545,-82.1715,1.592,33.14,1111122 
SCCF RECON,ioos:station:SCCF:51:1,2011-01-10T18:00:00Z,26.5545,-82.1715,1.677,32.81,1111122 
SCCF RECON,ioos:station:SCCF:51:1,2011-01-10T19:00:00Z,26.5545,-82.1715,1.766,32.75,1111122 
SCCF RECON,ioos:station:SCCF:51:1,2011-01-10T20:00:00Z,26.5545,-82.1715,1.861,33.13,1111122 
SCCF RECON,ioos:station:SCCF:51:1,2011-01-10T21:00:00Z,26.5545,-82.1715,1.913,33.38,1111122 
SCCF RECON,ioos:station:SCCF:51:1,2011-01-10T22:00:00Z,26.5545,-82.1715,1.931,33.41,1111122 
SCCF RECON,ioos:station:SCCF:51:1,2011-01-10T23:00:00Z,26.5545,-82.1715,1.898,33.32,1111122 
SCCF RECON,ioos:station:SCCF:51:1,2011-01-11T00:00:00Z,26.5545,-82.1715,1.836,32.72,1111122 
SCCF RECON,ioos:station:SCCF:51:1,2011-01-11T01:00:00Z,26.5545,-82.1715,1.767,32.65,1111122 
SCCF RECON,ioos:station:SCCF:51:1,2011-01-11T02:00:00Z,26.5545,-82.1715,1.698,32.69,1111122 
SCCF RECON,ioos:station:SCCF:51:1,2011-01-11T03:00:00Z,26.5545,-82.1715,1.651,32.76,1111122 
SCCF RECON,ioos:station:SCCF:51:1,2011-01-11T04:00:00Z,26.5545,-82.1715,1.607,32.81,1111122 
SCCF RECON,ioos:station:SCCF:51:1,2011-01-11T05:00:00Z,26.5545,-82.1715,1.588,32.87,1111122 
SCCF RECON,ioos:station:SCCF:51:1,2011-01-11T06:00:00Z,26.5545,-82.1715,1.6,32.96,1111122 
SCCF RECON,ioos:station:SCCF:51:1,2011-01-11T07:00:00Z,26.5545,-82.1715,1.651,33.12,1111122 
SCCF RECON,ioos:station:SCCF:51:1,2011-01-11T08:00:00Z,26.5545,-82.1715,1.709,32.96,1111122 
SCCF RECON,ioos:station:SCCF:51:1,2011-01-11T09:00:00Z,26.5545,-82.1715,1.763,32.93,1111122 
SCCF RECON,ioos:station:SCCF:51:1,2011-01-11T10:00:00Z,26.5545,-82.1715,1.79,33.11,1111122 
SCCF RECON,ioos:station:SCCF:51:1,2011-01-11T11:00:00Z,26.5545,-82.1715,1.776,33.17,1111122 
SCCF RECON,ioos:station:SCCF:51:1,2011-01-11T12:00:00Z,26.5545,-82.1715,1.749,33.07,1111122 
SCCF RECON,ioos:station:SCCF:51:1,2011-01-11T13:00:00Z,26.5545,-82.1715,1.71,33.07,1111122 
SCCF RECON,ioos:station:SCCF:51:1,2011-01-11T14:00:00Z,26.5545,-82.1715,1.678,32.99,1111122 
SCCF RECON,ioos:station:SCCF:51:1,2011-01-11T15:00:00Z,26.5545,-82.1715,1.65,32.82,1111122 
SCCF RECON,ioos:station:SCCF:51:1,2011-01-11T16:00:00Z,26.5545,-82.1715,1.655,32.8,1111122 
SCCF RECON,ioos:station:SCCF:51:1,2011-01-11T17:00:00Z,26.5545,-82.1715,1.691,32.79,1111122 
SCCF RECON,ioos:station:SCCF:51:1,2011-01-11T18:00:00Z,26.5545,-82.1715,1.733,32.92,1111122 